| time (UTC) | temp F | wind direction | speed knots | gust knots | rain 1hr in | rain 24hr in | rain mn in | humidity % | barometer mb |
| 20260509173922 | 0 | 66 | 1.7 | 1.7 | 0.00 | 0.00 | 0.00 | 1011.5 | |
| 20260509173421 | 0 | 264 | 2.6 | 2.6 | 0.00 | 0.00 | 0.00 | 1011.5 | |
| 20260509172918 | 0 | 13 | 1.7 | 1.7 | 0.00 | 0.00 | 0.00 | 1011.5 | |
| 20260509172415 | 0 | 38 | 0.9 | 1.7 | 0.00 | 0.00 | 0.00 | 1011.9 | |
| 20260509171911 | 0 | 31 | 2.6 | 2.6 | 0.00 | 0.00 | 0.00 | 1011.9 | |
| 20260509171407 | 0 | 28 | 2.6 | 2.6 | 0.00 | 0.00 | 0.00 | 1011.9 | |
| 20260509170903 | 0 | 347 | 2.6 | 2.6 | 0.00 | 0.00 | 0.00 | 1011.9 | |
| 20260509170359 | 0 | 217 | 0.0 | 0.9 | 0.00 | 0.00 | 0.00 | 1011.9 | |
| 20260509165855 | 0 | 130 | 0.9 | 0.9 | 0.00 | 0.00 | 0.00 | 1011.9 | |
| 20260509165349 | 0 | 46 | 0.9 | 0.9 | 0.00 | 0.00 | 0.00 | 1011.9 | |
| 20260509164845 | 0 | 46 | 0.0 | 0.0 | 0.00 | 0.00 | 0.00 | 1011.9 | |
| 20260509164341 | 0 | 93 | 0.9 | 1.7 | 0.00 | 0.00 | 0.00 | 1011.9 | |
| 20260509163837 | 0 | 178 | 0.0 | 0.9 | 0.00 | 0.00 | 0.00 | 1011.9 | |
| 20260509163334 | 0 | 180 | 0.0 | 0.0 | 0.00 | 0.00 | 0.00 | 1011.9 | |
| 20260509162834 | 0 | 88 | 0.0 | 0.9 | 0.00 | 0.00 | 0.00 | 1011.9 | |
| 20260509162332 | 0 | 48 | 0.0 | 0.0 | 0.00 | 0.00 | 0.00 | 1011.9 | |
| 20260509161829 | 0 | 86 | 0.0 | 0.0 | 0.00 | 0.00 | 0.00 | 1011.9 | |
| 20260509161325 | 0 | 56 | 1.7 | 1.7 | 0.00 | 0.00 | 0.00 | 1011.9 | |
| 20260509160821 | 0 | 81 | 2.6 | 2.6 | 0.00 | 0.00 | 0.00 | 1011.5 | |
| 20260509160316 | 0 | 197 | 0.0 | 0.0 | 0.00 | 0.00 | 0.00 | 1011.5 | |
| 20260509155812 | 0 | 198 | 0.9 | 0.9 | 0.00 | 0.00 | 0.00 | 1011.9 | |
| 20260509155309 | 0 | 198 | 0.9 | 0.9 | 0.00 | 0.00 | 0.00 | 1011.5 | |
| 20260509154805 | 0 | 196 | 0.0 | 0.0 | 0.00 | 0.00 | 0.00 | 1011.5 | |
| 20260509154302 | 0 | 196 | 0.9 | 0.9 | 0.00 | 0.00 | 0.00 | 1011.2 | |
| 20260509153759 | 0 | 195 | 0.9 | 0.9 | 0.00 | 0.00 | 0.00 | 1011.2 | |
| 20260509153255 | 0 | 58 | 0.9 | 1.7 | 0.00 | 0.00 | 0.00 | 1011.5 | |
| 20260509152752 | 0 | 194 | 0.9 | 1.7 | 0.00 | 0.00 | 0.00 | 1011.5 | |
| 20260509152248 | 0 | 194 | 0.0 | 0.0 | 0.00 | 0.00 | 0.00 | 1011.5 | |
| 20260509151745 | 0 | 194 | 0.9 | 0.9 | 0.00 | 0.00 | 0.00 | 1011.2 | |
| 20260509151241 | 0 | 190 | 0.9 | 0.9 | 0.00 | 0.00 | 0.00 | 1011.5 | |
| 20260509150740 | 0 | 187 | 0.9 | 0.9 | 0.00 | 0.00 | 0.00 | 1011.5 | |
| 20260509150238 | 0 | 191 | 0.9 | 0.9 | 0.00 | 0.00 | 0.00 | 1011.5 | |
| 20260509145735 | 0 | 136 | 0.9 | 1.7 | 0.00 | 0.00 | 0.00 | 1011.5 | |
| 20260509145234 | 0 | 93 | 0.9 | 0.9 | 0.00 | 0.00 | 0.00 | 1011.5 | |
| 20260509144731 | 0 | 174 | 0.9 | 0.9 | 0.00 | 0.00 | 0.00 | 1011.5 | |
| 20260509144228 | 0 | 130 | 0.9 | 0.9 | 0.00 | 0.00 | 0.00 | 1011.5 | |
| 20260509143725 | 0 | 147 | 2.6 | 2.6 | 0.00 | 0.00 | 0.00 | 1011.5 | |
| 20260509143223 | 0 | 55 | 1.7 | 1.7 | 0.00 | 0.00 | 0.00 | 1011.5 | |
| 20260509142718 | 0 | 92 | 1.7 | 1.7 | 0.00 | 0.00 | 0.00 | 1011.9 | |
| 20260509142215 | 0 | 63 | 1.7 | 1.7 | 0.00 | 0.00 | 0.00 | 1011.5 | |
| 20260509141710 | 0 | 169 | 0.9 | 0.9 | 0.00 | 0.00 | 0.00 | 1011.5 | |
| 20260509141208 | 0 | 182 | 0.9 | 1.7 | 0.00 | 0.00 | 0.00 | 1011.5 | |
| 20260509140704 | 0 | 63 | 1.7 | 1.7 | 0.00 | 0.00 | 0.00 | 1011.5 | |
| 20260509140202 | 0 | 124 | 0.0 | 0.0 | 0.00 | 0.00 | 0.00 | 1011.5 | |
| 20260509135659 | 0 | 178 | 0.9 | 0.9 | 0.00 | 0.00 | 0.00 | 1011.9 | |
| 20260509135157 | 0 | 72 | 0.9 | 0.9 | 0.00 | 0.00 | 0.00 | 1011.9 | |
| 20260509134653 | 0 | 52 | 0.9 | 1.7 | 0.00 | 0.00 | 0.00 | 1011.9 | |
| 20260509134151 | 0 | 77 | 0.9 | 1.7 | 0.00 | 0.00 | 0.00 | 1011.9 | |
| 20260509133648 | 0 | 129 | 0.0 | 0.9 | 0.00 | 0.00 | 0.00 | 1011.9 | |
| 20260509133145 | 0 | 151 | 0.0 | 0.0 | 0.00 | 0.00 | 0.00 | 1011.5 | |
| 20260509132643 | 0 | 83 | 0.9 | 0.9 | 0.00 | 0.00 | 0.00 | 1011.9 | |
| 20260509132141 | 0 | 189 | 0.0 | 0.0 | 0.00 | 0.00 | 0.00 | 1011.9 | |
| 20260509131637 | 0 | 185 | 0.0 | 0.9 | 0.00 | 0.00 | 0.00 | 1011.9 | |
| 20260509131134 | 0 | 140 | 0.0 | 0.9 | 0.00 | 0.00 | 0.00 | 1011.9 | |
| 20260509130630 | 0 | 122 | 0.9 | 1.7 | 0.00 | 0.00 | 0.00 | 1011.9 | |
| 20260509130126 | 0 | 177 | 0.9 | 0.9 | 0.00 | 0.00 | 0.00 | 1011.9 | |
| 20260509125623 | 0 | 158 | 0.9 | 0.9 | 0.00 | 0.00 | 0.00 | 1011.9 | |
| 20260509125120 | 0 | 179 | 0.0 | 0.0 | 0.00 | 0.00 | 0.00 | 1011.9 | |
| 20260509124616 | 0 | 136 | 0.9 | 0.9 | 0.00 | 0.00 | 0.00 | 1011.9 | |
| 20260509124114 | 0 | 162 | 0.0 | 0.0 | 0.00 | 0.00 | 0.00 | 1011.9 | |
| 20260509123612 | 0 | 169 | 0.9 | 0.9 | 0.00 | 0.00 | 0.00 | 1011.9 | |
| 20260509123108 | 0 | 178 | 0.0 | 0.0 | 0.00 | 0.00 | 0.00 | 1011.9 | |
| 20260509122604 | 0 | 156 | 0.0 | 0.9 | 0.00 | 0.00 | 0.00 | 1011.5 | |
| 20260509122102 | 0 | 137 | 0.0 | 0.0 | 0.00 | 0.00 | 0.00 | 1011.9 | |
| 20260509121558 | 0 | 178 | 0.0 | 0.0 | 0.00 | 0.00 | 0.00 | 1011.9 | |
| 20260509121055 | 0 | 178 | 0.0 | 0.0 | 0.00 | 0.00 | 0.00 | 1011.5 | |
| 20260509120553 | 0 | 178 | 0.0 | 0.0 | 0.00 | 0.00 | 0.00 | 1011.5 | |
| 20260509120052 | 0 | 178 | 0.0 | 0.0 | 0.00 | 0.00 | 0.00 | 1011.2 | |
| 20260509115548 | 0 | 170 | 0.0 | 0.0 | 0.00 | 0.00 | 0.00 | 1011.5 | |
| 20260509115046 | 0 | 145 | 0.0 | 0.0 | 0.00 | 0.00 | 0.00 | 1011.5 | |
| 20260509114544 | 0 | 174 | 0.9 | 0.9 | 0.00 | 0.00 | 0.00 | 1011.2 | |
| 20260509114042 | 0 | 137 | 0.9 | 1.7 | 0.00 | 0.00 | 0.00 | 1011.2 | |
| 20260509113540 | 0 | 170 | 0.0 | 0.0 | 0.00 | 0.00 | 0.00 | 1011.2 | |
| 20260509113038 | 0 | 170 | 0.0 | 0.9 | 0.00 | 0.00 | 0.00 | 1011.2 | |
| 20260509112534 | 0 | 170 | 0.0 | 0.0 | 0.00 | 0.00 | 0.00 | 1010.8 | |
| 20260509112031 | 0 | 100 | 0.0 | 0.0 | 0.00 | 0.00 | 0.00 | 1010.8 | |
| 20260509111528 | 0 | 119 | 0.0 | 0.0 | 0.00 | 0.00 | 0.00 | 1010.8 | |
| 20260509111026 | 0 | 170 | 0.0 | 0.0 | 0.00 | 0.00 | 0.00 | 1010.5 | |
| 20260509110522 | 0 | 171 | 0.0 | 0.0 | 0.00 | 0.00 | 0.00 | 1010.8 | |
| 20260509110019 | 0 | 136 | 0.0 | 0.0 | 0.00 | 0.00 | 0.00 | 1010.8 | |
| 20260509105517 | 0 | 136 | 0.0 | 0.9 | 0.00 | 0.00 | 0.00 | 1010.5 | |
| 20260509105015 | 0 | 76 | 0.0 | 0.9 | 0.00 | 0.00 | 0.00 | 1010.5 | |
| 20260509104511 | 0 | 100 | 1.7 | 1.7 | 0.00 | 0.00 | 0.00 | 1010.5 | |
| 20260509104008 | 0 | 101 | 1.7 | 1.7 | 0.00 | 0.00 | 0.00 | 1010.5 | |
| 20260509103506 | 0 | 89 | 1.7 | 1.7 | 0.00 | 0.00 | 0.00 | 1010.2 | |
| 20260509103004 | 0 | 70 | 1.7 | 1.7 | 0.00 | 0.00 | 0.00 | 1010.5 | |
| 20260509102502 | 0 | 61 | 0.9 | 1.7 | 0.00 | 0.00 | 0.00 | 1010.2 | |
| 20260509101958 | 0 | 90 | 0.9 | 1.7 | 0.00 | 0.00 | 0.00 | 1010.2 | |
| 20260509101454 | 0 | 105 | 0.9 | 0.9 | 0.00 | 0.00 | 0.00 | 1010.2 | |
| 20260509100951 | 0 | 99 | 1.7 | 1.7 | 0.00 | 0.00 | 0.00 | 1010.2 | |
| 20260509100448 | 0 | 86 | 0.9 | 0.9 | 0.00 | 0.00 | 0.00 | 1009.8 | |
| 20260509095945 | 0 | 62 | 1.7 | 2.6 | 0.00 | 0.00 | 0.00 | 1009.8 | |
| 20260509095442 | 0 | 66 | 0.9 | 0.9 | 0.00 | 0.00 | 0.00 | 1009.8 | |
| 20260509094939 | 0 | 103 | 0.9 | 0.9 | 0.00 | 0.00 | 0.00 | 1009.5 | |
| 20260509094435 | 0 | 58 | 1.7 | 1.7 | 0.00 | 0.00 | 0.00 | 1009.8 | |
| 20260509093933 | 0 | 59 | 1.7 | 1.7 | 0.00 | 0.00 | 0.00 | 1009.5 | |
| 20260509093430 | 0 | 191 | 0.0 | 0.0 | 0.00 | 0.00 | 0.00 | 1009.8 | |
| 20260509092928 | 0 | 190 | 0.0 | 0.0 | 0.00 | 0.00 | 0.00 | 1009.5 | |
| 20260509092426 | 0 | 187 | 0.9 | 0.9 | 0.00 | 0.00 | 0.00 | 1009.8 | |
| 20260509091925 | 0 | 190 | 0.0 | 0.0 | 0.00 | 0.00 | 0.00 | 1009.8 | |
| 20260509091421 | 0 | 187 | 0.0 | 0.9 | 0.00 | 0.00 | 0.00 | 1010.2 | |
| 20260509090918 | 0 | 187 | 0.0 | 0.0 | 0.00 | 0.00 | 0.00 | 1009.8 | |
| 20260509090415 | 0 | 187 | 0.9 | 1.7 | 0.00 | 0.00 | 0.00 | 1010.2 | |
| 20260509085913 | 0 | 194 | 0.9 | 0.9 | 0.00 | 0.00 | 0.00 | 1010.2 | |
| 20260509085410 | 0 | 195 | 0.9 | 0.9 | 0.00 | 0.00 | 0.00 | 1010.2 | |
| 20260509084906 | 0 | 196 | 0.0 | 0.0 | 0.00 | 0.00 | 0.00 | 1010.2 | |
| 20260509084403 | 0 | 197 | 0.0 | 0.0 | 0.00 | 0.00 | 0.00 | 1010.2 | |
| 20260509083901 | 0 | 197 | 0.0 | 0.0 | 0.00 | 0.00 | 0.00 | 1010.2 | |
| 20260509083357 | 0 | 197 | 0.0 | 0.0 | 0.00 | 0.00 | 0.00 | 1010.2 | |
| 20260509082854 | 0 | 197 | 0.0 | 0.0 | 0.00 | 0.00 | 0.00 | 1010.2 | |
| 20260509082351 | 0 | 196 | 0.0 | 0.9 | 0.00 | 0.00 | 0.00 | 1010.5 | |
| 20260509081848 | 0 | 196 | 0.0 | 0.0 | 0.00 | 0.00 | 0.00 | 1010.5 | |
| 20260509081345 | 0 | 196 | 0.0 | 0.0 | 0.00 | 0.00 | 0.00 | 1010.5 | |
| 20260509080843 | 0 | 196 | 0.0 | 0.0 | 0.00 | 0.00 | 0.00 | 1010.5 | |
| 20260509080341 | 0 | 196 | 0.0 | 0.0 | 0.00 | 0.00 | 0.00 | 1010.5 | |
| 20260509075839 | 0 | 197 | 0.0 | 0.0 | 0.00 | 0.00 | 0.00 | 1010.5 | |
| 20260509075335 | 0 | 197 | 0.0 | 0.0 | 0.00 | 0.00 | 0.00 | 1010.5 | |
| 20260509074832 | 0 | 197 | 0.0 | 0.0 | 0.00 | 0.00 | 0.00 | 1010.5 | |
| 20260509074330 | 0 | 197 | 0.0 | 0.0 | 0.00 | 0.00 | 0.00 | 1010.5 | |
| 20260509073827 | 0 | 195 | 0.0 | 0.9 | 0.00 | 0.00 | 0.00 | 1010.5 | |
| 20260509073323 | 0 | 194 | 0.9 | 0.9 | 0.00 | 0.00 | 0.00 | 1010.8 | |
| 20260509072820 | 0 | 194 | 1.7 | 1.7 | 0.00 | 0.00 | 0.00 | 1010.8 | |
| 20260509072316 | 0 | 193 | 0.9 | 0.9 | 0.00 | 0.00 | 0.00 | 1011.2 | |
| 20260509071813 | 0 | 191 | 0.9 | 1.7 | 0.00 | 0.00 | 0.00 | 1011.2 | |
| 20260509071310 | 0 | 191 | 0.9 | 0.9 | 0.00 | 0.00 | 0.00 | 1011.2 | |
| 20260509070807 | 0 | 191 | 0.0 | 0.9 | 0.00 | 0.00 | 0.00 | 1011.5 | |
| 20260509070304 | 0 | 191 | 0.9 | 0.9 | 0.00 | 0.00 | 0.00 | 1011.5 | |
| 20260509065800 | 0 | 191 | 0.0 | 0.0 | 0.00 | 0.00 | 0.00 | 1011.9 | |
| 20260509065256 | 0 | 190 | 0.0 | 0.0 | 0.00 | 0.00 | 0.00 | 1011.9 | |
| 20260509064752 | 0 | 188 | 0.0 | 0.9 | 0.00 | 0.00 | 0.00 | 1011.9 | |
| 20260509064250 | 0 | 191 | 0.0 | 0.0 | 0.00 | 0.00 | 0.00 | 1011.9 | |
| 20260509063747 | 0 | 191 | 0.0 | 0.9 | 0.00 | 0.00 | 0.00 | 1011.5 | |
| 20260509063244 | 0 | 191 | 0.0 | 0.0 | 0.00 | 0.00 | 0.00 | 1011.5 | |
| 20260509062741 | 0 | 191 | 0.0 | 0.0 | 0.00 | 0.00 | 0.00 | 1011.5 | |
| 20260509062238 | 0 | 193 | 0.0 | 0.9 | 0.00 | 0.00 | 0.00 | 1011.9 | |
| 20260509061735 | 0 | 193 | 0.0 | 0.0 | 0.00 | 0.00 | 0.00 | 1011.9 | |
| 20260509061233 | 0 | 193 | 0.0 | 0.0 | 0.00 | 0.00 | 0.00 | 1011.9 | |
| 20260509060730 | 0 | 193 | 0.0 | 0.0 | 0.00 | 0.00 | 0.00 | 1011.9 | |
| 20260509060226 | 0 | 193 | 0.9 | 0.9 | 0.00 | 0.00 | 0.00 | 1012.2 | |
| 20260509055722 | 0 | 195 | 0.0 | 0.0 | 0.00 | 0.00 | 0.00 | 1011.9 | |
| 20260509055218 | 0 | 197 | 0.0 | 0.0 | 0.00 | 0.00 | 0.00 | 1011.9 | |
| 20260509054714 | 0 | 138 | 0.0 | 0.9 | 0.00 | 0.00 | 0.00 | 1011.9 | |
| 20260509054212 | 0 | 134 | 0.9 | 0.9 | 0.00 | 0.00 | 0.00 | 1012.2 | |
| 20260509053711 | 0 | 51 | 1.7 | 1.7 | 0.00 | 0.00 | 0.00 | 1012.2 | |
| 20260509053207 | 0 | 101 | 1.7 | 2.6 | 0.00 | 0.00 | 0.00 | 1012.2 | |
| 20260509052705 | 0 | 46 | 2.6 | 2.6 | 0.00 | 0.00 | 0.00 | 1012.2 | |
| 20260509052202 | 0 | 74 | 1.7 | 1.7 | 0.00 | 0.00 | 0.00 | 1012.2 | |
| 20260509051700 | 0 | 157 | 0.9 | 0.9 | 0.00 | 0.00 | 0.00 | 1011.9 | |
| 20260509051157 | 0 | 157 | 1.7 | 1.7 | 0.00 | 0.00 | 0.00 | 1011.9 | |
| 20260509050654 | 0 | 165 | 0.0 | 0.0 | 0.00 | 0.00 | 0.00 | 1011.9 | |
| 20260509050150 | 0 | 175 | 0.0 | 0.0 | 0.00 | 0.00 | 0.00 | 1011.9 | |
| 20260509045648 | 0 | 180 | 0.0 | 0.0 | 0.00 | 0.57 | 0.57 | 1011.5 | |
| 20260509045144 | 0 | 175 | 0.0 | 0.0 | 0.00 | 0.57 | 0.57 | 1011.2 | |
| 20260509044641 | 0 | 182 | 0.0 | 0.0 | 0.00 | 0.57 | 0.57 | 1011.2 | |
| 20260509044139 | 0 | 165 | 0.9 | 0.9 | 0.00 | 0.57 | 0.57 | 1011.2 | |
| 20260509043636 | 0 | 181 | 0.0 | 0.0 | 0.00 | 0.57 | 0.57 | 1011.9 | |
| 20260509043131 | 0 | 178 | 0.9 | 0.9 | 0.00 | 0.57 | 0.57 | 1011.5 | |
| 20260509042628 | 0 | 182 | 0.0 | 0.9 | 0.00 | 0.57 | 0.57 | 1011.5 | |
| 20260509042124 | 0 | 183 | 1.7 | 1.7 | 0.00 | 0.57 | 0.57 | 1011.2 | |
| 20260509041621 | 0 | 181 | 0.9 | 1.7 | 0.00 | 0.57 | 0.57 | 1011.5 | |
| 20260509041118 | 0 | 181 | 0.9 | 1.7 | 0.00 | 0.57 | 0.57 | 1011.5 | |
| 20260509040617 | 0 | 176 | 0.9 | 0.9 | 0.00 | 0.57 | 0.57 | 1010.8 | |
| 20260509040114 | 0 | 180 | 0.0 | 0.9 | 0.00 | 0.57 | 0.57 | 1010.8 | |
| 20260509035610 | 0 | 180 | 0.9 | 0.9 | 0.00 | 0.57 | 0.57 | 1010.5 | |
| 20260509035107 | 0 | 180 | 0.0 | 0.0 | 0.00 | 0.57 | 0.57 | 1009.8 | |
| 20260509034605 | 0 | 175 | 1.7 | 1.7 | 0.00 | 0.57 | 0.57 | 1010.5 | |
| 20260509034101 | 0 | 176 | 0.0 | 0.0 | 0.05 | 0.57 | 0.57 | 1010.5 | |
| 20260509033558 | 0 | 180 | 0.0 | 0.9 | 0.12 | 0.57 | 0.57 | 1010.5 | |
| 20260509033055 | 0 | 179 | 1.7 | 1.7 | 0.07 | 0.56 | 0.56 | 1010.5 | |
| 20260509032553 | 0 | 178 | 0.9 | 0.9 | 0.00 | 0.55 | 0.55 | 1010.5 | |
| 20260509032049 | 0 | 178 | 1.7 | 1.7 | 0.00 | 0.55 | 0.55 | 1010.5 | |
| 20260509031547 | 0 | 176 | 0.0 | 0.9 | 0.00 | 0.55 | 0.55 | 1010.8 | |
| 20260509031044 | 0 | 178 | 0.0 | 0.0 | 0.00 | 0.55 | 0.55 | 1011.2 | |
| 20260509030543 | 0 | 178 | 0.0 | 0.9 | 0.00 | 0.55 | 0.55 | 1010.8 | |
| 20260509030039 | 0 | 178 | 0.0 | 0.9 | 0.00 | 0.55 | 0.55 | 1011.2 | |
| 20260509025535 | 0 | 178 | 0.9 | 0.9 | 0.00 | 0.55 | 0.55 | 1010.8 | |
| 20260509025031 | 0 | 176 | 0.0 | 0.0 | 0.00 | 0.55 | 0.55 | 1011.2 | |
| 20260509024527 | 0 | 176 | 0.0 | 0.0 | 0.00 | 0.55 | 0.55 | 1010.5 | |
| 20260509024023 | 0 | 176 | 0.0 | 0.0 | 0.00 | 0.55 | 0.55 | 1011.2 | |
| 20260509023521 | 0 | 176 | 0.0 | 0.0 | 0.00 | 0.55 | 0.55 | 1010.8 | |
| 20260509023018 | 0 | 176 | 0.0 | 0.0 | 0.00 | 0.55 | 0.55 | 1011.2 | |
| 20260509022514 | 0 | 177 | 0.0 | 0.0 | 0.00 | 0.55 | 0.55 | 1010.8 | |
| 20260509022012 | 0 | 176 | 0.0 | 0.0 | 0.00 | 0.55 | 0.55 | 1010.8 | |
| 20260509021509 | 0 | 176 | 0.0 | 0.0 | 0.00 | 0.55 | 0.55 | 1010.8 | |
| 20260509021006 | 0 | 175 | 0.0 | 0.9 | 0.00 | 0.55 | 0.55 | 1010.2 | |
| 20260509020504 | 0 | 176 | 0.0 | 0.0 | 0.00 | 0.55 | 0.55 | 1010.5 | |
| 20260509020001 | 0 | 176 | 0.0 | 0.0 | 0.05 | 0.55 | 0.55 | 1010.5 | |
| 20260509015500 | 0 | 176 | 0.0 | 0.0 | 0.12 | 0.55 | 0.55 | 1010.2 | |
| 20260509014956 | 0 | 176 | 0.0 | 0.0 | 0.00 | 0.53 | 0.53 | 1010.2 | |
| 20260509014453 | 0 | 176 | 0.0 | 0.0 | 0.00 | 0.53 | 0.53 | 1009.8 | |
| 20260509013949 | 0 | 175 | 0.0 | 0.0 | 0.00 | 0.53 | 0.53 | 1010.2 | |
| 20260509013447 | 0 | 175 | 0.0 | 0.9 | 0.00 | 0.53 | 0.53 | 1010.2 | |
| 20260509012942 | 0 | 177 | 0.0 | 0.0 | 0.00 | 0.53 | 0.53 | 1010.2 | |
| 20260509012439 | 0 | 178 | 0.0 | 0.0 | 0.00 | 0.53 | 0.53 | 1010.2 | |
| 20260509011935 | 0 | 178 | 0.0 | 0.0 | 0.00 | 0.53 | 0.53 | 1010.2 | |
| 20260509011433 | 0 | 178 | 0.0 | 0.0 | 0.00 | 0.53 | 0.53 | 1010.2 | |
| 20260509010930 | 0 | 178 | 0.0 | 0.0 | 0.00 | 0.53 | 0.53 | 1009.5 | |
| 20260509010428 | 0 | 176 | 0.0 | 0.9 | 0.00 | 0.53 | 0.53 | 1009.5 | |
| 20260509005925 | 0 | 176 | 0.0 | 0.9 | 0.00 | 0.53 | 0.53 | 1009.8 | |
| 20260509005423 | 0 | 175 | 0.9 | 0.9 | 0.00 | 0.53 | 0.53 | 1009.8 | |
| 20260509004922 | 0 | 176 | 0.9 | 0.9 | 0.00 | 0.53 | 0.53 | 1009.5 | |
| 20260509004419 | 0 | 175 | 0.0 | 0.0 | 0.00 | 0.53 | 0.53 | 1009.5 | |
| 20260509003917 | 0 | 175 | 0.0 | 0.0 | 0.00 | 0.53 | 0.53 | 1009.5 | |
| 20260509003414 | 0 | 175 | 0.0 | 0.0 | 0.00 | 0.53 | 0.53 | 1009.5 | |
| 20260509002911 | 0 | 175 | 0.0 | 0.0 | 0.00 | 0.53 | 0.53 | 1009.5 | |
| 20260509002409 | 0 | 175 | 0.0 | 0.9 | 0.00 | 0.53 | 0.53 | 1009.5 | |
| 20260509001906 | 0 | 175 | 0.0 | 0.0 | 0.00 | 0.53 | 0.53 | 1009.5 | |
| 20260509001403 | 0 | 175 | 0.0 | 0.9 | 0.00 | 0.53 | 0.53 | 1009.5 | |
| 20260509000900 | 0 | 162 | 0.0 | 0.0 | 0.00 | 0.53 | 0.53 | 1009.5 | |
| 20260509000358 | 0 | 161 | 0.0 | 0.9 | 0.00 | 0.53 | 0.53 | 1009.5 | |
| 20260508235853 | 0 | 195 | 0.0 | 0.0 | 0.00 | 0.53 | 0.53 | 1009.5 | |
| 20260508235351 | 0 | 195 | 0.0 | 0.9 | 0.00 | 0.53 | 0.53 | 1009.5 | |
| 20260508234848 | 0 | 181 | 0.0 | 0.9 | 0.00 | 0.53 | 0.53 | 1009.5 | |
| 20260508234344 | 0 | 181 | 0.0 | 0.0 | 0.00 | 0.53 | 0.53 | 1009.5 | |
| 20260508233843 | 0 | 181 | 0.0 | 0.0 | 0.00 | 0.53 | 0.53 | 1009.5 | |
| 20260508233342 | 0 | 181 | 0.0 | 0.0 | 0.00 | 0.53 | 0.53 | 1009.8 | |
| 20260508232838 | 0 | 181 | 0.0 | 0.9 | 0.00 | 0.53 | 0.53 | 1009.8 | |
| 20260508232334 | 0 | 160 | 2.6 | 2.6 | 0.00 | 0.53 | 0.53 | 1009.8 | |
| 20260508231833 | 0 | 201 | 0.0 | 0.0 | 0.00 | 0.53 | 0.53 | 1009.5 | |
| 20260508231329 | 0 | 189 | 0.9 | 0.9 | 0.00 | 0.53 | 0.53 | 1009.8 | |
| 20260508230826 | 0 | 186 | 0.9 | 0.9 | 0.00 | 0.53 | 0.53 | 1009.5 | |
| 20260508230322 | 0 | 194 | 0.9 | 0.9 | 0.00 | 0.53 | 0.53 | 1009.5 | |
| 20260508225820 | 0 | 184 | 0.9 | 0.9 | 0.00 | 0.53 | 0.53 | 1009.5 | |
| 20260508225316 | 0 | 171 | 0.9 | 0.9 | 0.00 | 0.53 | 0.53 | 1009.2 | |
| 20260508224815 | 0 | 172 | 0.0 | 0.9 | 0.00 | 0.53 | 0.53 | 1009.2 | |
| 20260508224312 | 0 | 217 | 1.7 | 2.6 | 0.00 | 0.53 | 0.53 | 1009.2 | |
| 20260508223809 | 0 | 69 | 0.9 | 1.7 | 0.00 | 0.53 | 0.53 | 1009.5 | |
| 20260508223306 | 0 | 196 | 0.9 | 0.9 | 0.00 | 0.53 | 0.53 | 1009.5 | |
| 20260508222804 | 0 | 196 | 0.9 | 0.9 | 0.00 | 0.53 | 0.53 | 1009.8 | |
| 20260508222301 | 0 | 175 | 1.7 | 1.7 | 0.00 | 0.53 | 0.53 | 1010.2 | |
| 20260508221757 | 0 | 188 | 0.0 | 0.9 | 0.00 | 0.53 | 0.53 | 1010.2 | |
| 20260508221253 | 0 | 215 | 0.9 | 1.7 | 0.00 | 0.53 | 0.53 | 1010.2 | |
| 20260508220750 | 0 | 164 | 3.5 | 4.3 | 0.00 | 0.53 | 0.53 | 1010.5 | |
| 20260508220246 | 0 | 224 | 0.9 | 1.7 | 0.00 | 0.53 | 0.53 | 1010.8 | |
| 20260508215742 | 0 | 217 | 1.7 | 1.7 | 0.00 | 0.53 | 0.53 | 1010.2 | |
| 20260508215239 | 0 | 197 | 0.9 | 1.7 | 0.00 | 0.53 | 0.53 | 1010.2 | |
| 20260508214736 | 0 | 185 | 0.9 | 0.9 | 0.00 | 0.53 | 0.53 | 1010.2 | |
| 20260508214234 | 0 | 189 | 2.6 | 2.6 | 0.00 | 0.53 | 0.53 | 1010.2 | |
| 20260508213730 | 0 | 185 | 0.9 | 0.9 | 0.00 | 0.53 | 0.53 | 1010.2 | |
| 20260508213227 | 0 | 182 | 0.0 | 0.0 | 0.00 | 0.53 | 0.53 | 1010.2 | |
| 20260508212723 | 0 | 213 | 0.9 | 0.9 | 0.00 | 0.53 | 0.53 | 1010.5 | |
| 20260508212220 | 0 | 211 | 0.9 | 0.9 | 0.00 | 0.53 | 0.53 | 1010.5 | |
| 20260508211715 | 0 | 181 | 0.0 | 0.0 | 0.00 | 0.53 | 0.53 | 1010.2 | |
| 20260508211211 | 0 | 196 | 0.9 | 0.9 | 0.00 | 0.53 | 0.53 | 1010.5 | |
| 20260508210709 | 0 | 175 | 0.9 | 0.9 | 0.00 | 0.53 | 0.53 | 1010.5 | |
| 20260508210206 | 0 | 181 | 0.9 | 0.9 | 0.00 | 0.53 | 0.53 | 1010.5 | |
| 20260508205703 | 0 | 148 | 1.7 | 1.7 | 0.00 | 0.53 | 0.53 | 1010.5 | |
| 20260508205159 | 0 | 163 | 1.7 | 2.6 | 0.00 | 0.53 | 0.53 | 1010.5 | |
| 20260508204655 | 0 | 172 | 1.7 | 2.6 | 0.00 | 0.53 | 0.53 | 1010.8 | |
| 20260508204151 | 0 | 225 | 2.6 | 2.6 | 0.00 | 0.53 | 0.53 | 1010.8 | |
| 20260508203648 | 0 | 200 | 0.9 | 0.9 | 0.00 | 0.53 | 0.53 | 1010.8 | |
| 20260508203144 | 0 | 175 | 1.7 | 2.6 | 0.00 | 0.53 | 0.53 | 1010.8 | |
| 20260508202640 | 0 | 178 | 1.7 | 1.7 | 0.00 | 0.53 | 0.53 | 1010.8 | |
| 20260508202138 | 0 | 157 | 1.7 | 1.7 | 0.00 | 0.53 | 0.53 | 1010.8 | |
| 20260508201634 | 0 | 148 | 1.7 | 1.7 | 0.00 | 0.53 | 0.53 | 1011.2 | |
| 20260508201131 | 0 | 138 | 0.9 | 0.9 | 0.00 | 0.53 | 0.53 | 1011.2 | |
| 20260508200628 | 0 | 186 | 0.9 | 0.9 | 0.00 | 0.53 | 0.53 | 1011.5 | |
| 20260508200124 | 0 | 189 | 0.9 | 1.7 | 0.00 | 0.53 | 0.53 | 1011.5 | |
| 20260508195621 | 0 | 67 | 2.6 | 2.6 | 0.00 | 0.53 | 0.53 | 1011.5 | |
| 20260508195117 | 0 | 202 | 0.9 | 0.9 | 0.00 | 0.53 | 0.53 | 1011.5 | |
| 20260508194613 | 0 | 134 | 0.9 | 0.9 | 0.00 | 0.53 | 0.53 | 1011.9 | |
| 20260508194111 | 0 | 74 | 2.6 | 2.6 | 0.00 | 0.53 | 0.53 | 1011.9 | |
| 20260508193608 | 0 | 24 | 1.7 | 1.7 | 0.00 | 0.53 | 0.53 | 1011.9 | |
| 20260508193104 | 0 | 96 | 1.7 | 2.6 | 0.00 | 0.53 | 0.53 | 1011.9 | |
| 20260508192601 | 0 | 77 | 2.6 | 2.6 | 0.00 | 0.53 | 0.53 | 1011.9 | |
| 20260508192058 | 0 | 27 | 1.7 | 2.6 | 0.00 | 0.53 | 0.53 | 1011.9 | |
| 20260508191554 | 0 | 101 | 1.7 | 2.6 | 0.00 | 0.53 | 0.53 | 1011.9 | |
| 20260508191051 | 0 | 76 | 1.7 | 1.7 | 0.00 | 0.53 | 0.53 | 1012.2 | |
| 20260508190549 | 0 | 1 | 3.5 | 5.2 | 0.00 | 0.53 | 0.53 | 1012.2 | |
| 20260508190045 | 0 | 58 | 1.7 | 1.7 | 0.00 | 0.53 | 0.53 | 1012.2 | |
| 20260508185542 | 0 | 70 | 1.7 | 1.7 | 0.00 | 0.53 | 0.53 | 1012.2 | |
| 20260508185040 | 0 | 344 | 1.7 | 1.7 | 0.00 | 0.53 | 0.53 | 1012.2 | |
| 20260508184537 | 0 | 161 | 0.0 | 0.9 | 0.00 | 0.53 | 0.53 | 1012.2 | |
| 20260508184033 | 0 | 18 | 0.9 | 0.9 | 0.00 | 0.53 | 0.53 | 1012.5 | |
| 20260508183530 | 0 | 101 | 0.9 | 1.7 | 0.00 | 0.53 | 0.53 | 1012.5 | |
| 20260508183026 | 0 | 188 | 0.9 | 1.7 | 0.00 | 0.53 | 0.53 | 1012.9 | |
| 20260508182523 | 0 | 115 | 1.7 | 2.6 | 0.00 | 0.53 | 0.53 | 1012.9 | |
| 20260508182019 | 0 | 102 | 0.9 | 1.7 | 0.00 | 0.53 | 0.53 | 1012.9 | |
| 20260508181515 | 0 | 104 | 0.9 | 1.7 | 0.00 | 0.53 | 0.53 | 1013.2 | |
| 20260508181013 | 0 | 35 | 1.7 | 1.7 | 0.00 | 0.53 | 0.53 | 1013.6 | |
| 20260508180509 | 0 | 26 | 1.7 | 1.7 | 0.00 | 0.53 | 0.53 | 1013.6 | |
| 20260508180005 | 0 | 93 | 2.6 | 4.3 | 0.00 | 0.53 | 0.53 | 1014.0 | |
| 20260508175502 | 0 | 181 | 0.9 | 0.9 | 0.00 | 0.53 | 0.53 | 1014.0 | |
| 20260508174959 | 0 | 79 | 2.6 | 2.6 | 0.00 | 0.53 | 0.53 | 1014.0 | |
| 20260508174457 | 0 | 33 | 2.6 | 2.6 | 0.00 | 0.53 | 0.53 | 1014.3 |